Location: La Oliva
(42.2466°N, 2.9955°E)
Time: 07:54:02
(UTC+00:00)

Cosmos 2151 - Pass Details

Date: 22 April 2021
Orbit: 582 x 600 km, 82.5° (Epoch: 07 May)

Event Time Altitude Azimuth Distance (km) Brightness Sun altitude
Rises 19:35:50 0° 3° (N) 2,857 6.8 -10.8°
Reaches altitude 10° 19:38:21 10° 16° (NNE) 1,948 5.8 -11.2°
Maximum altitude 19:42:00 27° 74° (ENE) 1,170 4.1 -11.8°
Enters shadow 19:44:09 18° 117° (ESE) 1,480 4.3 -12.1°
